Garden City, KS

9:12 AM CDT on September 22, 2017 (GMT -0500)
Garden City Regional

Weather History for KGCK - June, 2013

Change the Weather History Date:

Wednesday, June 26, 2013

  Actual Average Record
Temperature  
Mean Temperature 86 °F 76 °F  
Max Temperature 103 °F 90 °F 108 °F (2012)
Min Temperature 69 °F 62 °F 46 °F (1968)
Degree Days  
Heating Degree Days 0 0  
Month to date heating degree days 12 14  
Since 1 June heating degree days 12 14  
Since 1 July heating degree days 5211 5205  
Cooling Degree Days 21 11  
Month to date cooling degree days 325 207  
Year to date cooling degree days 472 296  
Since 1 June cooling degree days 325 207  
Growing Degree Days 36 (Base 50)    
Moisture  
Dew Point 58 °F    
Average Humidity 47    
Maximum Humidity 79    
Minimum Humidity 14    
Precipitation  
Precipitation 0.00 in 0.11 in 3.37 in (1993)
Month to date precipitation 2.13 3.03  
Year to date precipitation 3.70 9.97  
Sea Level Pressure  
Sea Level Pressure 29.79 in    
Wind  
Wind Speed 12 mph (East)    
Max Wind Speed 24 mph    
Max Gust Speed 32 mph    
Visibility 10 miles    
Events      
T = Trace of Precipitation, MM = Missing Value Source: NWS Daily Summary

Daily Weather History Graph

Daily Weather History Graph

Search for Another Location

Airport or City:

Trip Planner

Search our weather history database for the weather conditions in past years. The results will help you decide how hot, cold, wet, or windy it might be!

Date:

Astronomy

Jun. 26, 2013 Rise Set
Actual Time 6:22 AM CDT 9:09 PM CDT
Civil Twilight 5:50 AM CDT 9:40 PM CDT
Nautical Twilight 5:11 AM CDT 10:20 PM CDT
Astronomical Twilight 4:26 AM CDT 11:04 PM CDT
Moon 11:38 PM CDT (6/26) 10:12 AM CDT (6/26)
Length of Visible Light 15h 49m
Length of Day
14h 47m
Waning Gibbous, 85% of the Moon is Illuminated
Jun 26
Waning Gibbous
Jun 29
Last Quarter
Jul 8
New
Jul 15
First Quarter
Jul 22
Full

Hourly Weather History & Observations

Time (CDT) Temp. Heat Index Dew Point Humidity Pressure Visibility Wind Dir Wind Speed Gust Speed Precip Events Conditions
12:54 AM 78.1 °F - 54.0 °F 43% 29.71 in 10.0 mi East 12.7 mph - N/A   Clear
1:54 AM 77.0 °F - 55.0 °F 47% 29.72 in 10.0 mi East 10.4 mph - N/A   Clear
2:54 AM 75.0 °F - 62.1 °F 64% 29.72 in 10.0 mi East 9.2 mph - N/A   Clear
3:54 AM 73.9 °F - 64.0 °F 71% 29.72 in 10.0 mi East 8.1 mph - N/A   Clear
4:54 AM 72.0 °F - 64.9 °F 78% 29.73 in 10.0 mi East 5.8 mph - N/A   Clear
5:54 AM 69.1 °F - 63.0 °F 81% 29.75 in 10.0 mi NNE 12.7 mph - N/A   Clear
6:54 AM 71.1 °F - 64.9 °F 81% 29.77 in 8.0 mi NE 6.9 mph - N/A   Clear
7:54 AM 73.9 °F - 66.0 °F 76% 29.79 in 7.0 mi ENE 9.2 mph - N/A   Clear
8:54 AM 79.0 °F - 66.9 °F 66% 29.81 in 8.0 mi ENE 6.9 mph - N/A   Clear
9:54 AM 84.9 °F 87.1 °F 66.0 °F 53% 29.83 in 9.0 mi ENE 8.1 mph - N/A   Clear
10:54 AM 90.0 °F 91.7 °F 64.9 °F 43% 29.82 in 10.0 mi East 10.4 mph - N/A   Clear
11:54 AM 96.1 °F 96.4 °F 61.0 °F 31% 29.83 in 10.0 mi East 15.0 mph - N/A   Clear
12:54 PM 99.0 °F - 50.0 °F 19% 29.82 in 10.0 mi ESE 17.3 mph 25.3 mph N/A   Clear
1:54 PM 100.9 °F - 50.0 °F 18% 29.81 in 10.0 mi East 17.3 mph - N/A   Clear
2:54 PM 102.0 °F 99.7 °F 53.1 °F 19% 29.81 in 10.0 mi East 17.3 mph 25.3 mph N/A   Clear
3:54 PM 102.0 °F - 48.0 °F 16% 29.80 in 10.0 mi SE 21.9 mph 29.9 mph N/A   Clear
4:54 PM 102.0 °F - 44.1 °F 14% 29.80 in 10.0 mi SE 18.4 mph 26.5 mph N/A   Clear
5:54 PM 100.9 °F - 46.0 °F 15% 29.81 in 10.0 mi SE 13.8 mph - N/A   Clear
6:54 PM 99.0 °F 97.7 °F 55.9 °F 24% 29.81 in 10.0 mi ESE 20.7 mph - N/A   Clear
7:54 PM 97.0 °F 95.0 °F 55.0 °F 24% 29.81 in 10.0 mi ESE 15.0 mph - N/A   Clear
8:54 PM 93.0 °F 91.7 °F 57.0 °F 30% 29.81 in 10.0 mi ESE 10.4 mph - N/A   Clear
9:54 PM 86.0 °F 86.1 °F 61.0 °F 43% 29.83 in 10.0 mi ESE 6.9 mph - N/A   Clear
10:54 PM 84.0 °F 84.9 °F 63.0 °F 49% 29.84 in 10.0 mi SE 8.1 mph - N/A   Clear
11:54 PM 82.0 °F 83.1 °F 63.0 °F 52% 29.85 in 10.0 mi SE 10.4 mph - N/A   Clear